When you browse on this site, cookies collect data to enhance your experience and personalize the content and advertising you see.
Visit our Privacy Policy to learn more. By continuing to use the site, you agree to this use of cookies and data.
  • în România
  • Lista ţărilor
  • Pe 7 zile
  • Temperatura apei
  • Meteo pe hartă
  • Widget-uri
  • user-avatar
    Intrare

    Meteo pe oră la Batina

    Astăzi, 20 August, Marţi

    Timp Temperatura Precipitaţii Vânt Presiune Umiditate
    00:00 +26°C° 0 mm 2 m/s 672 mmHg 49%
    01:00 +25°C° 0 mm 1 m/s 671 mmHg 50%
    02:00 +25°C° 0 mm 1 m/s 671 mmHg 51%
    03:00 +24°C° 0 mm 1 m/s 670 mmHg 52%
    04:00 +25°C° 0 mm 1 m/s 671 mmHg 50%
    05:00 +25°C° 0 mm 1 m/s 671 mmHg 47%
    06:00 +24°C° 0 mm 0 m/s 671 mmHg 45%
    07:00 +28°C° 0 mm 1 m/s 672 mmHg 39%
    08:00 +30°C° 0 mm 2 m/s 673 mmHg 32%
    09:00 +33°C° 0 mm 3 m/s 673 mmHg 26%
    10:00 +34°C° 0 mm 3 m/s 673 mmHg 23%
    11:00 +35°C° 0 mm 4 m/s 674 mmHg 19%
    12:00 +36°C° 0 mm 4 m/s 674 mmHg 16%
    13:00 +37°C° 0 mm 5 m/s 673 mmHg 15%
    14:00 +37°C° 0 mm 5 m/s 673 mmHg 14%
    15:00 +38°C° 0 mm 6 m/s 673 mmHg 14%
    16:00 +36°C° 0 mm 6 m/s 673 mmHg 16%
    17:00 +35°C° 0 mm 7 m/s 673 mmHg 19%
    18:00 +33°C° 0 mm 8 m/s 673 mmHg 21%
    19:00 +32°C° 0 mm 6 m/s 673 mmHg 26%
    20:00 +29°C° 0 mm 4 m/s 673 mmHg 32%
    21:00 +27°C° 0 mm 2 m/s 673 mmHg 37%
    22:00 +27°C° 0 mm 2 m/s 673 mmHg 39%
    23:00 +26°C° 0 mm 2 m/s 673 mmHg 42%

    Mâine, 21 August, Miercuri

    Timp Temperatura Precipitaţii Vânt Presiune Umiditate
    00:00 +25°C° 0 mm 2 m/s 673 mmHg 44%
    01:00 +25°C° 0 mm 2 m/s 672 mmHg 46%
    02:00 +24°C° 0 mm 1 m/s 672 mmHg 48%
    03:00 +23°C° 0 mm 1 m/s 672 mmHg 49%
    04:00 +24°C° 0 mm 1 m/s 672 mmHg 50%
    05:00 +24°C° 0 mm 1 m/s 673 mmHg 51%
    06:00 +24°C° 0 mm 1 m/s 673 mmHg 51%
    07:00 +26°C° 0 mm 1 m/s 674 mmHg 46%
    08:00 +27°C° 0 mm 1 m/s 674 mmHg 41%
    09:00 +29°C° 0 mm 2 m/s 675 mmHg 36%
    10:00 +30°C° 0 mm 2 m/s 675 mmHg 33%
    11:00 +32°C° 0 mm 2 m/s 675 mmHg 29%
    12:00 +34°C° 0 mm 3 m/s 675 mmHg 26%
    13:00 +35°C° 0 mm 3 m/s 674 mmHg 25%
    14:00 +35°C° 0 mm 3 m/s 674 mmHg 24%
    15:00 +35°C° 0 mm 4 m/s 673 mmHg 23%
    16:00 +35°C° 0 mm 4 m/s 673 mmHg 25%
    17:00 +34°C° 0 mm 3 m/s 673 mmHg 26%
    18:00 +33°C° 0 mm 3 m/s 673 mmHg 28%
    19:00 +30°C° 0 mm 2 m/s 673 mmHg 36%
    20:00 +29°C° 0 mm 2 m/s 673 mmHg 44%
    21:00 +27°C° 0 mm 1 m/s 673 mmHg 52%
    22:00 +27°C° 0 mm 1 m/s 673 mmHg 54%
    23:00 +26°C° 0 mm 1 m/s 673 mmHg 56%

    Poimâine, 22 August, Joi

    Timp Temperatura Precipitaţii Vânt Presiune Umiditate
    00:00 +26°C° 0 mm 1 m/s 672 mmHg 59%
    01:00 +25°C° 0 mm 1 m/s 672 mmHg 58%
    02:00 +25°C° 0 mm 1 m/s 672 mmHg 57%
    03:00 +24°C° 0 mm 1 m/s 672 mmHg 57%
    04:00 +25°C° 0 mm 1 m/s 672 mmHg 56%
    05:00 +25°C° 0 mm 1 m/s 673 mmHg 54%
    06:00 +26°C° 0 mm 1 m/s 673 mmHg 53%
    07:00 +27°C° 0 mm 2 m/s 674 mmHg 47%
    08:00 +29°C° 0 mm 2 m/s 674 mmHg 42%
    09:00 +31°C° 0 mm 3 m/s 675 mmHg 36%
    10:00 +31°C° 0 mm 3 m/s 675 mmHg 33%
    11:00 +33°C° 0 mm 4 m/s 675 mmHg 31%
    12:00 +34°C° 0 mm 5 m/s 675 mmHg 28%
    13:00 +34°C° 0 mm 5 m/s 674 mmHg 28%
    14:00 +35°C° 0 mm 5 m/s 674 mmHg 28%
    15:00 +35°C° 0 mm 6 m/s 673 mmHg 27%
    16:00 +33°C° 0 mm 5 m/s 673 mmHg 32%
    17:00 +32°C° 0 mm 5 m/s 673 mmHg 37%
    18:00 +30°C° 0 mm 4 m/s 673 mmHg 41%
    19:00 +29°C° 1 mm 4 m/s 674 mmHg 49%
    20:00 +27°C° 1 mm 3 m/s 674 mmHg 56%
    21:00 +26°C° 1 mm 2 m/s 674 mmHg 64%
    22:00 +25°C° 0 mm 1 m/s 673 mmHg 65%
    23:00 +25°C° 0 mm 1 m/s 673 mmHg 65%

    23 August, Vineri

    Timp Temperatura Precipitaţii Vânt Presiune Umiditate
    00:00 +25°C° 0 mm 1 m/s 673 mmHg 66%
    01:00 +24°C° 0 mm 1 m/s 673 mmHg 66%
    02:00 +24°C° 0 mm 1 m/s 672 mmHg 67%
    03:00 +23°C° 0 mm 1 m/s 672 mmHg 67%
    04:00 +24°C° 0 mm 1 m/s 673 mmHg 67%
    05:00 +24°C° 0 mm 1 m/s 673 mmHg 66%
    06:00 +24°C° 0 mm 1 m/s 673 mmHg 66%
    07:00 +25°C° 0 mm 1 m/s 674 mmHg 59%
    08:00 +27°C° 0 mm 2 m/s 674 mmHg 52%
    09:00 +28°C° 0 mm 2 m/s 675 mmHg 45%
    10:00 +29°C° 0 mm 3 m/s 675 mmHg 41%
    11:00 +30°C° 0 mm 4 m/s 675 mmHg 37%
    12:00 +32°C° 0 mm 5 m/s 675 mmHg 33%
    13:00 +33°C° 0 mm 5 m/s 674 mmHg 32%
    14:00 +33°C° 0 mm 5 m/s 674 mmHg 31%
    15:00 +33°C° 0 mm 5 m/s 673 mmHg 30%
    16:00 +32°C° 0 mm 4 m/s 673 mmHg 31%
    17:00 +32°C° 0 mm 4 m/s 673 mmHg 33%
    18:00 +30°C° 0 mm 3 m/s 673 mmHg 34%
    19:00 +29°C° 0 mm 3 m/s 673 mmHg 40%
    20:00 +27°C° 0 mm 2 m/s 673 mmHg 46%
    21:00 +26°C° 0 mm 2 m/s 673 mmHg 53%
    22:00 +26°C° 0 mm 2 m/s 672 mmHg 55%
    23:00 +25°C° 0 mm 1 m/s 672 mmHg 57%

    24 August, Sâmbătă

    Timp Temperatura Precipitaţii Vânt Presiune Umiditate
    00:00 +24°C° 0 mm 1 m/s 672 mmHg 60%
    01:00 +24°C° 0 mm 1 m/s 672 mmHg 61%
    02:00 +24°C° 0 mm 1 m/s 672 mmHg 61%
    03:00 +21°C° 0 mm 0 m/s 672 mmHg 62%
    04:00 +22°C° 0 mm 0 m/s 672 mmHg 60%
    05:00 +22°C° 0 mm 0 m/s 672 mmHg 58%
    06:00 +25°C° 0 mm 1 m/s 672 mmHg 56%
    07:00 +26°C° 0 mm 1 m/s 673 mmHg 51%
    08:00 +27°C° 0 mm 1 m/s 673 mmHg 46%
    09:00 +28°C° 0 mm 1 m/s 674 mmHg 41%
    10:00 +29°C° 0.1 mm 2 m/s 674 mmHg 40%
    11:00 +29°C° 0.1 mm 2 m/s 674 mmHg 39%
    12:00 +30°C° 0.1 mm 3 m/s 674 mmHg 38%
    13:00 +29°C° 0.5 mm 3 m/s 673 mmHg 42%
    14:00 +28°C° 0.5 mm 3 m/s 672 mmHg 45%
    15:00 +27°C° 0.5 mm 3 m/s 672 mmHg 49%
    16:00 +26°C° 0.2 mm 3 m/s 672 mmHg 53%
    17:00 +25°C° 0.2 mm 3 m/s 672 mmHg 56%
    18:00 +24°C° 0.2 mm 3 m/s 671 mmHg 60%
    19:00 +24°C° 0 mm 2 m/s 672 mmHg 60%
    20:00 +24°C° 0 mm 2 m/s 672 mmHg 60%
    21:00 +24°C° 0 mm 1 m/s 672 mmHg 60%
    22:00 +24°C° 0 mm 1 m/s 672 mmHg 60%
    23:00 +23°C° 0 mm 1 m/s 672 mmHg 60%

    25 August, Duminică

    Timp Temperatura Precipitaţii Vânt Presiune Umiditate
    00:00 +23°C° 0 mm 1 m/s 672 mmHg 60%
    01:00 +23°C° 0 mm 1 m/s 672 mmHg 61%
    02:00 +22°C° 0 mm 1 m/s 671 mmHg 62%
    03:00 +20°C° 0 mm 0 m/s 671 mmHg 64%
    04:00 +20°C° 0 mm 0 m/s 672 mmHg 61%
    05:00 +21°C° 0 mm 0 m/s 672 mmHg 58%
    06:00 +22°C° 0 mm 0 m/s 673 mmHg 55%
    07:00 +25°C° 0 mm 1 m/s 673 mmHg 50%
    08:00 +27°C° 0 mm 1 m/s 674 mmHg 44%
    09:00 +28°C° 0 mm 1 m/s 674 mmHg 39%
    10:00 +29°C° 0 mm 2 m/s 674 mmHg 36%
    11:00 +30°C° 0 mm 3 m/s 674 mmHg 33%
    12:00 +30°C° 0 mm 3 m/s 674 mmHg 31%
    13:00 +30°C° 0 mm 3 m/s 674 mmHg 31%
    14:00 +30°C° 0 mm 3 m/s 673 mmHg 32%
    15:00 +30°C° 0 mm 3 m/s 673 mmHg 33%
    16:00 +29°C° 0 mm 3 m/s 673 mmHg 34%
    17:00 +29°C° 0 mm 2 m/s 673 mmHg 35%
    18:00 +28°C° 0 mm 2 m/s 672 mmHg 36%
    19:00 +27°C° 0 mm 2 m/s 673 mmHg 39%
    20:00 +27°C° 0 mm 2 m/s 673 mmHg 41%
    21:00 +26°C° 0 mm 2 m/s 673 mmHg 44%
    22:00 +25°C° 0 mm 2 m/s 673 mmHg 46%
    23:00 +25°C° 0 mm 1 m/s 672 mmHg 47%
    Arată mai mult